Wautoma, WI

12:42 PM CDT on May 29, 2017 (GMT -0500)
Wautoma

Weather History for KY50 - September, 2012

Change the Weather History Date:

Thursday, September 20, 2012

  Actual Average (KPCZ) Record (KPCZ)
Temperature  
Mean Temperature 52 °F -  
Max Temperature 63 °F 71 °F 87 °F (1985)
Min Temperature 39 °F 48 °F 29 °F (1956)
Degree Days  
Heating Degree Days 13    
Growing Degree Days 2 (Base 50)    
Moisture  
Dew Point 39 °F    
Average Humidity 69    
Maximum Humidity 96    
Minimum Humidity 36    
Precipitation  
Precipitation 0.00 in - - ()
Sea Level Pressure  
Sea Level Pressure 29.85 in    
Wind  
Wind Speed 5 mph (West)    
Max Wind Speed 17 mph    
Max Gust Speed 23 mph    
Visibility 9 miles    
Events      
Averages and records for this station are not official NWS values.
T = Trace of Precipitation, MM = Missing Value Source: NWS Daily Summary

Daily Weather History Graph

Daily Weather History Graph

Search for Another Location

Airport or City:

Trip Planner

Search our weather history database for the weather conditions in past years. The results will help you decide how hot, cold, wet, or windy it might be!

Date:

Astronomy

Sep. 20, 2012 Rise Set
Actual Time 6:42 AM CDT 6:57 PM CDT
Civil Twilight 6:13 AM CDT 7:26 PM CDT
Nautical Twilight 5:39 AM CDT 8:00 PM CDT
Astronomical Twilight 5:05 AM CDT 8:34 PM CDT
Moon 12:13 PM CDT (9/20) 9:46 PM CDT (9/20)
Length of Visible Light 13h 12m
Length of Day
12h 14m
Waxing Crescent, 27% of the Moon is Illuminated
Sep 20
Waxing Crescent
Sep 22
First Quarter
Sep 29
Full
Oct 8
Last Quarter
Oct 15
New

Hourly Weather History & Observations

Time (CDT) Temp. Dew Point Humidity Pressure Visibility Wind Dir Wind Speed Gust Speed Precip Events Conditions
12:56 AM 46.9 °F 43.0 °F 86% 29.81 in 10.0 mi WSW 4.6 mph - N/A   Clear
1:56 AM 47.8 °F 43.0 °F 83% 29.81 in 10.0 mi Calm Calm - N/A   Clear
2:56 AM 45.9 °F 41.9 °F 86% 29.81 in 10.0 mi Calm Calm - N/A   Clear
3:56 AM 43.9 °F 41.0 °F 90% 29.81 in 10.0 mi Calm Calm - N/A   Clear
4:56 AM 41.0 °F 39.9 °F 96% 29.80 in 10.0 mi Calm Calm - N/A   Clear
5:56 AM 41.9 °F 39.9 °F 93% 29.82 in 10.0 mi Calm Calm - N/A   Clear
6:56 AM 41.9 °F 39.9 °F 93% 29.83 in 10.0 mi Calm Calm - N/A   Clear
8:56 AM 50.9 °F 43.0 °F 74% 29.85 in 10.0 mi West 5.8 mph - N/A   Clear
9:56 AM 55.9 °F 41.9 °F 59% 29.85 in 10.0 mi WNW 12.7 mph - N/A   Clear
10:56 AM 57.9 °F 41.9 °F 55% 29.84 in 10.0 mi West 12.7 mph - N/A   Partly Cloudy
11:56 AM 61.9 °F 41.9 °F 48% 29.84 in 10.0 mi West 13.8 mph - N/A   Scattered Clouds
12:56 PM 61.9 °F 41.0 °F 46% 29.84 in 10.0 mi West 12.7 mph 19.6 mph N/A   Mostly Cloudy
1:56 PM 61.0 °F 41.0 °F 48% 29.84 in 10.0 mi NW 12.7 mph - N/A   Mostly Cloudy
2:56 PM 61.9 °F 39.9 °F 44% 29.84 in 10.0 mi West 17.3 mph 20.7 mph N/A   Mostly Cloudy
3:56 PM 63.9 °F 38.8 °F 40% 29.85 in 10.0 mi West 11.5 mph 18.4 mph N/A   Scattered Clouds
4:56 PM 61.9 °F 37.9 °F 41% 29.86 in 10.0 mi NW 11.5 mph - N/A   Overcast
5:56 PM 61.0 °F 34.0 °F 36% 29.86 in 10.0 mi WNW 16.1 mph 23.0 mph N/A   Mostly Cloudy
6:56 PM 57.9 °F 34.0 °F 41% 29.88 in 10.0 mi West 5.8 mph - N/A   Clear
7:56 PM 52.0 °F 36.0 °F 54% 29.89 in 10.0 mi Calm Calm - N/A   Clear
8:56 PM 46.9 °F 37.9 °F 71% 29.90 in 10.0 mi Calm Calm - N/A   Scattered Clouds
9:56 PM 43.0 °F 38.8 °F 85% 29.91 in 10.0 mi Calm Calm - N/A   Partly Cloudy
10:56 PM 41.9 °F 38.8 °F 89% 29.90 in 10.0 mi Calm Calm - N/A   Clear
11:17 PM 41.0 °F 37.4 °F 87% 29.90 in 1.8 mi Calm Calm - N/A   Clear
11:31 PM 41.0 °F 37.4 °F 87% 29.90 in 3.0 mi Calm Calm - N/A   Clear
11:56 PM 39.9 °F 36.9 °F 89% 29.89 in 10.0 mi Calm Calm - N/A   Clear